Back to catalog

STARLINK-34681

AliveCommunicationsVLEO
NORAD 66438·PAYLOAD·🇺🇸 United States

Launched Nov 11, 2025 from Cape Canaveral Space Force Station

Loading…

Next Passes (next 24 hours)

TLE

FreshSource: CelesTrak SupGP

Epoch: Sep 14, 2026, 23:17 UTC

1 66438C 25259S   26257.97062500  .00028021  00000+0  10147-2 0  2575
2 66438  43.0024 285.4533 0001742 272.0875 265.4877 15.27569551    13

Track STARLINK-34681 in real time with AllMySat

Download on the App Store